Terminal Aerodrome Forecast
Issued by NWS San Angelo, TX

Home | Current Version | Previous Version | Text Only | Print | Product List | Glossary On
Versions: 1 2 3 4 5 6 7 8 9 10 11 12 13 14 15 16 17 18 19 20 21 22 23 24 25
000
FTUS44 KSJT 210200 AAA
TAFSJT
TAF AMD
KSJT 210243Z 2103/2124 18008KT P6SM SCT050
     FM210500 19007KT P6SM BKN020
     FM210800 20012KT P6SM BKN012
     FM211600 21014KT P6SM SCT020=

USA.gov is the U.S. government's official web portal to all federal, state and local government web resources and services.